Location: Roswell
(33.3943°N, 104.5230°W)
Time: 08:44:38
(UTC+00:00)

Tiros 1 - Pass Details

Date: 13 November 2024
Orbit: 622 x 653 km, 48.4° (Epoch: 06 December)

Event Time Altitude Azimuth Distance (km) Brightness Sun altitude
Rises 01:39:00 0° 283° (WNW) 2,952 11.7 -21.4°
Reaches altitude 10° 01:42:08 10° 305° (NW) 2,048 10.3 -22.0°
Maximum altitude 01:45:09 17° 345° (NNW) 1,658 9.3 -22.7°
Enters shadow 01:46:24 15° 4° (N) 1,734 9.2 -22.9°
